Regional Weather Roundup
Issued by NWS Northern Indiana

Home | Current Version | Previous Version | Text Only | Print | Product List | Glossary On
Versions: 1 2 3 4 5 6 7 8 9 10 11 12 13 14 15 16 17 18 19 20 21 22 23 24 25 26 27 28 29 30 31 32 33 34 35 36 37 38 39 40 41 42 43 44 45 46 47 48 49 50
000
ASUS43 KIWX 260710
RWRIWX

KIWX WEATHER ROUNDUP
NATIONAL WEATHER SERVICE NORTHERN INDIANA
300 AM EDT TUE JUL 26 2016

NOTE: "FAIR" INDICATES FEW OR NO CLOUDS BELOW 12,000 FEET WITH NO
SIGNIFICANT WEATHER AND/OR OBSTRUCTIONS TO VISIBILITY.

* THESE STATIONS ARE NOT UNDER NWS QUALITY CONTROL. THEY ALSO MAY NOT
  REPORT WEATHER SUCH AS PRECIPITATION OR FOG.

INZ001>027-260800-
NORTHERN INDIANA

CITY           SKY/WX    TMP DP  RH WIND       PRES   REMARKS
GARY*          PTCLDY    69  69 100 CALM      30.04S
VALPARAISO     CLOUDY    68  65  90 CALM      30.04S
MICHIGAN CITY* CLOUDY    64  64 100 CALM      30.04S
LAPORTE*       PTCLDY   N/A N/A N/A CALM      30.05S
KNOX*          PTCLDY    64  63  94 CALM      30.03S
SOUTH BEND     PTCLDY    65  63  93 CALM      30.04S
GOSHEN         PTCLDY    65  61  87 CALM      30.04R
MONTICELLO*    CLOUDY    66  62  85 CALM      30.02F
LOGANSPORT*    CLEAR     64  61  88 NE3       30.04S
ROCHESTER*     CLEAR     68  66  94 CALM      30.04F
WARSAW*        PTCLDY    63  63 100 CALM      30.05R
ANGOLA*        CLEAR     63  63 100 CALM      30.04S
FORT WAYNE     CLOUDY    64  61  90 NW3       30.04R
HUNTINGTON*    CLOUDY    64  63  96 CALM      30.04R
PERU/GRISSOM   PTCLDY    66  66 100 CALM      30.02S
MARION*        PTCLDY    63  63  99 CALM      30.04S

$$
INZ028>050-260800-
CENTRAL INDIANA

CITY           SKY/WX    TMP DP  RH WIND       PRES   REMARKS
LAFAYETTE      MOCLDY    67  66  97 CALM      30.02S
KOKOMO*        PTCLDY    63  57  82 CALM      30.04S
MUNCIE*        PTCLDY    70  65  84 CALM      30.04S
INDIANAPOLIS   CLOUDY    77  68  73 NE7       30.02F

$$
MIZ043>046-050>051-056>058-064>065-071>073-077>080-260800-
SOUTHWEST LOWER MICHIGAN

CITY           SKY/WX    TMP DP  RH WIND       PRES   REMARKS
BATTLE CREEK   CLEAR     64  64 100 CALM      30.05R
BENTON HARBOR  PTCLDY    65  62  90 CALM      30.04R
COLDWATER*     CLOUDY    64  63  99 CALM      30.04S
HILLSDALE*     PTCLDY    64  60  90 N3        30.04R
HOLLAND        CLEAR     65  63  93 CALM      30.04S
GRAND RAPIDS   CLEAR     67  63  87 W3        30.04R
KALAMAZOO      CLEAR     65  61  87 CALM      30.05R
STURGIS*       CLOUDY    62  61  97 CALM      30.04R
THREE RIVERS*  FAIR      64  62  91 CALM      30.05R

$$
OHZ001>008-015>018-024>025-260800-
NORTHWEST OHIO

CITY           SKY/WX    TMP DP  RH WIND       PRES   REMARKS
DEFIANCE       CLOUDY    69  63  81 N3        30.02S
FINDLAY        CLOUDY    71  63  75 NW6       30.01R
TOLEDO EXPRESS CLEAR     69  66  90 NW5       30.01R
TOLEDO METCALF CLEAR     74  64  71 N7        30.01R
LIMA           CLOUDY    70  66  87 NW5       30.03R

$$
AND FOR LAKE MICHIGAN COASTAL AND OPEN LAKE BUOY OBSERVATIONS

STATION/POSITION TEMP    WIND        PRES    VSBY  WAVE
                 AIR SEA DIR/SP/G                  HT/PER
                 (F)     (DEG/KT/KT) (MB)    (MI)  (FT/S)
CALUMET HARBOR    74      CALM  /  1 1016.3R
MICHIGAN CITY     74     130/  4/  4   N/A
BURNS HARBOR      76      CALM  /  4 1017.3S
SAINT JOSEPH      71     180/  2/  4 1017.3S
SOUTH LAKE BUOY   73 73  230/  4/  4 1016.2R         0
4 MI NW BRIDGMAN  74 75  180/  4/  4 1016.7R         1
MICHIGAN CITY     74 75  150/  4/  4   N/A           1

$$
&&




USA.gov is the U.S. government's official web portal to all federal, state and local government web resources and services.